Powrót do katalogu

STARLINK-1278

AktywnyŁącznośćVLEO
NORAD 45408·PAYLOAD·🇺🇸 United States

Wystrzelony Mar 18, 2020 z Cape Canaveral Space Force Station

Loading…

Następne Przeloty (najbliższe 24 godziny)

TLE

ŚwieżeSource: CelesTrak SupGP

Epoka: Sep 14, 2026, 14:07 UTC

1 45408C 20019BA  26257.58868056  .00158140  00000+0  42510-3 0  2571
2 45408  53.0296 272.4253 0007580  29.1254   7.8905 15.93526752    11

Śledź STARLINK-1278 w czasie rzeczywistym z AllMySat

Download on the App Store